When you browse on this site, cookies collect data to enhance your experience and personalize the content and advertising you see.
Visit our Privacy Policy to learn more. By continuing to use the site, you agree to this use of cookies and data.
  • Em Portugal
  • Lista de países
  • Para 7 dias
  • Temperatura da água
  • Mapa do tempo
  • Widgets de tempo
  • user-avatar
    Iniciar Sessão

    Previsão horária em Innsbruck

    Hoje, 20 Fevereiro, Quinta-feira

    Tempo Temperatura Precipitação Vento Pressão Humidade
    00:00 -13°C° 0 mm 2 m/s 594 mmHg 80%
    01:00 -13°C° 0 mm 2 m/s 594 mmHg 76%
    02:00 -13°C° 0 mm 2 m/s 594 mmHg 73%
    03:00 -13°C° 0 mm 2 m/s 594 mmHg 70%
    04:00 -13°C° 0 mm 2 m/s 594 mmHg 68%
    05:00 -12°C° 0 mm 2 m/s 594 mmHg 65%
    06:00 -10°C° 0 mm 1 m/s 595 mmHg 63%
    07:00 -10°C° 0 mm 2 m/s 595 mmHg 63%
    08:00 -7°C° 0 mm 1 m/s 595 mmHg 62%
    09:00 -4°C° 0 mm 1 m/s 596 mmHg 61%
    10:00 -3°C° 0 mm 1 m/s 597 mmHg 60%
    11:00 -2°C° 0 mm 1 m/s 597 mmHg 62%
    12:00 -1°C° 0 mm 1 m/s 597 mmHg 64%
    13:00 0°C° 0 mm 1 m/s 597 mmHg 65%
    14:00 0°C° 0 mm 1 m/s 597 mmHg 67%
    15:00 +1°C° 0 mm 1 m/s 596 mmHg 68%
    16:00 +1°C° 0 mm 1 m/s 596 mmHg 70%
    17:00 -1°C° 0 mm 1 m/s 595 mmHg 70%
    18:00 -4°C° 0 mm 2 m/s 595 mmHg 69%
    19:00 -6°C° 0 mm 2 m/s 594 mmHg 69%
    20:00 -6°C° 0 mm 2 m/s 594 mmHg 64%
    21:00 -6°C° 0 mm 2 m/s 594 mmHg 59%
    22:00 -7°C° 0 mm 2 m/s 594 mmHg 55%
    23:00 -7°C° 0 mm 2 m/s 594 mmHg 56%

    Amanhã, 21 Fevereiro, Sexta-feira

    Tempo Temperatura Precipitação Vento Pressão Humidade
    00:00 -7°C° 0 mm 2 m/s 594 mmHg 57%
    01:00 -7°C° 0 mm 1 m/s 594 mmHg 57%
    02:00 -8°C° 0 mm 2 m/s 594 mmHg 60%
    03:00 -7°C° 0 mm 2 m/s 594 mmHg 63%
    04:00 -7°C° 0 mm 2 m/s 595 mmHg 66%
    05:00 -8°C° 0.2 mm 2 m/s 595 mmHg 73%
    06:00 -8°C° 0.2 mm 2 m/s 596 mmHg 79%
    07:00 -8°C° 0.2 mm 2 m/s 596 mmHg 85%
    14:00 -3°C° 0 mm 2 m/s 599 mmHg 90%
    15:00 -2°C° 0 mm 1 m/s 599 mmHg 79%
    16:00 -2°C° 0 mm 1 m/s 598 mmHg 78%
    17:00 -3°C° 0 mm 1 m/s 598 mmHg 81%
    18:00 -4°C° 0 mm 1 m/s 598 mmHg 84%
    19:00 -7°C° 0 mm 1 m/s 598 mmHg 86%
    20:00 -7°C° 0 mm 1 m/s 598 mmHg 80%
    21:00 -6°C° 0 mm 1 m/s 598 mmHg 74%
    22:00 -6°C° 0 mm 1 m/s 598 mmHg 68%
    23:00 -6°C° 0 mm 1 m/s 599 mmHg 64%

    Depois de amanhã, 22 Fevereiro, Sábado

    Tempo Temperatura Precipitação Vento Pressão Humidade
    00:00 -6°C° 0 mm 1 m/s 599 mmHg 61%
    01:00 -6°C° 0 mm 1 m/s 599 mmHg 57%
    02:00 -4°C° 0 mm 1 m/s 599 mmHg 54%
    03:00 -4°C° 0 mm 1 m/s 599 mmHg 51%
    04:00 -6°C° 0 mm 2 m/s 599 mmHg 48%
    05:00 -6°C° 0 mm 2 m/s 599 mmHg 48%
    06:00 -6°C° 0 mm 2 m/s 599 mmHg 47%
    07:00 -5°C° 0 mm 2 m/s 599 mmHg 47%
    08:00 -1°C° 0 mm 1 m/s 600 mmHg 54%
    09:00 +1°C° 0 mm 1 m/s 601 mmHg 60%
    10:00 +2°C° 0 mm 1 m/s 602 mmHg 66%
    11:00 +3°C° 0 mm 1 m/s 602 mmHg 69%
    12:00 +4°C° 0 mm 1 m/s 602 mmHg 71%
    13:00 +5°C° 0 mm 1 m/s 602 mmHg 73%
    14:00 +5°C° 0 mm 1 m/s 602 mmHg 73%
    15:00 +5°C° 0 mm 1 m/s 601 mmHg 73%
    16:00 +5°C° 0 mm 1 m/s 601 mmHg 74%
    17:00 +3°C° 0 mm 1 m/s 601 mmHg 69%
    18:00 +2°C° 0 mm 1 m/s 600 mmHg 64%
    19:00 -2°C° 0 mm 2 m/s 600 mmHg 59%
    20:00 -2°C° 0 mm 2 m/s 600 mmHg 58%
    21:00 -2°C° 0 mm 2 m/s 600 mmHg 56%
    22:00 -2°C° 0 mm 2 m/s 600 mmHg 55%
    23:00 0°C° 0 mm 1 m/s 600 mmHg 55%

    23 Fevereiro, Domingo

    Tempo Temperatura Precipitação Vento Pressão Humidade
    00:00 -1°C° 0 mm 1 m/s 600 mmHg 55%
    01:00 -1°C° 0 mm 1 m/s 600 mmHg 55%
    02:00 -3°C° 0 mm 2 m/s 600 mmHg 56%
    03:00 -3°C° 0 mm 2 m/s 600 mmHg 56%
    04:00 -3°C° 0 mm 2 m/s 599 mmHg 57%
    05:00 -3°C° 0 mm 2 m/s 599 mmHg 58%
    06:00 -3°C° 0 mm 2 m/s 599 mmHg 59%
    07:00 -3°C° 0 mm 2 m/s 599 mmHg 61%
    08:00 -2°C° 0 mm 2 m/s 600 mmHg 65%
    09:00 -1°C° 0 mm 2 m/s 600 mmHg 70%
    10:00 +2°C° 0 mm 1 m/s 601 mmHg 75%
    11:00 +1°C° 0 mm 2 m/s 601 mmHg 76%
    12:00 +2°C° 0 mm 2 m/s 601 mmHg 77%
    13:00 +3°C° 0 mm 2 m/s 600 mmHg 78%
    14:00 +2°C° 0 mm 2 m/s 600 mmHg 82%
    15:00 +2°C° 0 mm 2 m/s 599 mmHg 85%
    16:00 +2°C° 0 mm 2 m/s 599 mmHg 88%
    17:00 +1°C° 0 mm 2 m/s 599 mmHg 89%
    18:00 +1°C° 0 mm 2 m/s 599 mmHg 89%
    19:00 +1°C° 0 mm 2 m/s 599 mmHg 89%
    20:00 +1°C° 0 mm 2 m/s 599 mmHg 89%
    21:00 +1°C° 0 mm 2 m/s 599 mmHg 89%
    22:00 +1°C° 0 mm 2 m/s 599 mmHg 89%
    23:00 +1°C° 0 mm 2 m/s 599 mmHg 89%

    24 Fevereiro, Segunda-feira

    Tempo Temperatura Precipitação Vento Pressão Humidade
    00:00 +1°C° 0 mm 2 m/s 599 mmHg 89%
    01:00 +1°C° 0 mm 2 m/s 598 mmHg 90%
    02:00 -1°C° 0 mm 2 m/s 598 mmHg 90%
    03:00 -1°C° 0 mm 2 m/s 598 mmHg 90%
    04:00 -1°C° 0 mm 2 m/s 598 mmHg 91%
    05:00 -1°C° 0 mm 2 m/s 598 mmHg 91%
    06:00 -1°C° 0 mm 2 m/s 598 mmHg 90%
    07:00 -1°C° 0 mm 2 m/s 598 mmHg 90%
    08:00 +1°C° 0 mm 2 m/s 598 mmHg 89%
    09:00 +2°C° 0 mm 2 m/s 599 mmHg 87%
    10:00 +4°C° 0 mm 1 m/s 599 mmHg 86%
    11:00 +4°C° 0 mm 1 m/s 599 mmHg 83%
    12:00 +5°C° 0 mm 1 m/s 599 mmHg 79%
    13:00 +6°C° 0 mm 1 m/s 599 mmHg 76%
    14:00 +6°C° 0 mm 1 m/s 599 mmHg 76%
    15:00 +6°C° 0 mm 1 m/s 598 mmHg 77%
    16:00 +5°C° 0 mm 1 m/s 598 mmHg 77%
    17:00 +4°C° 0 mm 1 m/s 597 mmHg 75%
    18:00 +3°C° 0 mm 1 m/s 596 mmHg 73%
    19:00 +1°C° 0 mm 1 m/s 596 mmHg 71%
    20:00 +1°C° 0 mm 1 m/s 596 mmHg 67%
    21:00 +1°C° 0 mm 1 m/s 595 mmHg 64%
    22:00 +1°C° 0 mm 1 m/s 595 mmHg 61%
    23:00 0°C° 0 mm 1 m/s 595 mmHg 61%

    25 Fevereiro, Terça-feira

    Tempo Temperatura Precipitação Vento Pressão Humidade
    00:00 0°C° 0 mm 1 m/s 595 mmHg 61%
    01:00 0°C° 0 mm 1 m/s 594 mmHg 60%
    02:00 -1°C° 0 mm 1 m/s 594 mmHg 60%
    03:00 -1°C° 0 mm 1 m/s 594 mmHg 60%
    04:00 -1°C° 0 mm 1 m/s 593 mmHg 60%
    05:00 -1°C° 0 mm 1 m/s 593 mmHg 60%
    06:00 -1°C° 0 mm 1 m/s 593 mmHg 61%
    07:00 -2°C° 0 mm 1 m/s 593 mmHg 61%
    08:00 0°C° 0 mm 1 m/s 593 mmHg 61%
    09:00 +1°C° 0 mm 1 m/s 593 mmHg 62%
    10:00 +2°C° 0 mm 0 m/s 594 mmHg 62%
    11:00 +2°C° 0 mm 0 m/s 594 mmHg 62%
    12:00 +3°C° 0 mm 0 m/s 593 mmHg 63%
    13:00 +4°C° 0 mm 0 m/s 593 mmHg 63%
    14:00 +4°C° 0 mm 1 m/s 592 mmHg 66%
    15:00 +4°C° 0 mm 1 m/s 592 mmHg 70%
    16:00 +3°C° 0 mm 1 m/s 591 mmHg 73%
    17:00 +2°C° 0 mm 1 m/s 591 mmHg 78%
    18:00 +1°C° 0 mm 1 m/s 590 mmHg 84%
    19:00 0°C° 0 mm 1 m/s 589 mmHg 89%
    20:00 0°C° 0.1 mm 1 m/s 589 mmHg 90%
    21:00 -1°C° 0.1 mm 1 m/s 589 mmHg 91%
    22:00 -1°C° 0.1 mm 1 m/s 589 mmHg 92%
    23:00 -1°C° 0.1 mm 1 m/s 589 mmHg 93%
    Mostrar mais